Philadelphia, PA

3:17 AM EDT on September 28, 2016 (GMT -0400)
Northeast Philadelphia

Weather History for KPNE - December, 2013

Change the Weather History Date:

Tuesday, December 24, 2013

  Actual Average Record
Temperature  
Mean Temperature 35 °F -  
Max Temperature 42 °F 39 °F 72 °F (2015)
Min Temperature 28 °F 25 °F 16 °F (2000)
Degree Days  
Heating Degree Days 30    
Moisture  
Dew Point 21 °F    
Average Humidity 55    
Maximum Humidity 70    
Minimum Humidity 45    
Precipitation  
Precipitation 0.00 in - - ()
Sea Level Pressure  
Sea Level Pressure 30.23 in    
Wind  
Wind Speed 12 mph (NW)    
Max Wind Speed 20 mph    
Max Gust Speed 30 mph    
Visibility 10 miles    
Events      
Averages and records for this station are not official NWS values.
T = Trace of Precipitation, MM = Missing Value Source: NWS Daily Summary

Daily Weather History Graph

Daily Weather History Graph

Search for Another Location

Airport or City:

Trip Planner

Search our weather history database for the weather conditions in past years. The results will help you decide how hot, cold, wet, or windy it might be!

Date:

Astronomy

Dec. 24, 2013 Rise Set
Actual Time 7:20 AM EST 4:39 PM EST
Civil Twilight 6:49 AM EST 5:10 PM EST
Nautical Twilight 6:15 AM EST 5:44 PM EST
Astronomical Twilight 5:42 AM EST 6:17 PM EST
Moon 11:45 PM EST (12/24) 11:12 AM EST (12/24)
Length of Visible Light 10h 20m
Length of Day
9h 19m
Waning Gibbous, 59% of the Moon is Illuminated
Dec 24
Waning Gibbous
Dec 25
Last Quarter
Jan 1
New
Jan 7
First Quarter
Jan 15
Full

Hourly Weather History & Observations

Time (EST) Temp. Windchill Dew Point Humidity Pressure Visibility Wind Dir Wind Speed Gust Speed Precip Events Conditions
12:54 AM 42.1 °F 34.9 °F 30.0 °F 62% 30.17 in 10.0 mi North 13.8 mph - N/A   Scattered Clouds
1:54 AM 39.9 °F 33.9 °F 26.1 °F 58% 30.19 in 10.0 mi NNW 9.2 mph - N/A   Clear
2:54 AM 37.9 °F 30.0 °F 25.0 °F 60% 30.20 in 10.0 mi North 12.7 mph - N/A   Clear
3:54 AM 37.0 °F 29.8 °F 25.0 °F 62% 30.19 in 10.0 mi NNW 10.4 mph - N/A   Clear
4:54 AM 36.0 °F 29.6 °F 25.0 °F 64% 30.18 in 10.0 mi NNW 8.1 mph - N/A   Clear
5:54 AM 35.1 °F 27.9 °F 21.9 °F 59% 30.19 in 10.0 mi North 9.2 mph - N/A   Clear
6:54 AM 34.0 °F 28.0 °F 21.0 °F 59% 30.19 in 10.0 mi North 6.9 mph - N/A   Clear
7:54 AM 32.0 °F 27.5 °F 21.9 °F 66% 30.20 in 10.0 mi NNW 4.6 mph - N/A   Clear
8:54 AM 35.1 °F 30.1 °F 21.9 °F 59% 30.21 in 10.0 mi NNW 5.8 mph - N/A   Clear
9:54 AM 37.9 °F 30.5 °F 19.9 °F 48% 30.22 in 10.0 mi North 11.5 mph - N/A   Clear
10:54 AM 39.9 °F 32.1 °F 21.0 °F 47% 30.20 in 10.0 mi North 13.8 mph - N/A   Clear
11:54 AM 41.0 °F 33.1 °F 21.0 °F 45% 30.17 in 10.0 mi NW 15.0 mph 21.9 mph N/A   Clear
12:54 PM 39.9 °F 31.8 °F 21.0 °F 47% 30.15 in 10.0 mi NNW 15.0 mph 21.9 mph N/A   Overcast
1:54 PM 39.0 °F 31.0 °F 21.9 °F 50% 30.17 in 10.0 mi WNW 13.8 mph 18.4 mph N/A   Overcast
2:54 PM 39.0 °F 31.4 °F 19.9 °F 46% 30.18 in 10.0 mi WNW 12.7 mph 23.0 mph N/A   Mostly Cloudy
3:54 PM 37.9 °F 30.0 °F 21.0 °F 51% 30.19 in 10.0 mi NW 12.7 mph - N/A   Overcast
4:54 PM 37.0 °F 28.9 °F 21.0 °F 52% 30.22 in 10.0 mi WNW 12.7 mph - N/A   Overcast
5:54 PM 35.1 °F 25.9 °F 26.1 °F 70% 30.25 in 10.0 mi West 13.8 mph - 0.00 in   Scattered Clouds
6:54 PM 33.1 °F 24.4 °F 21.9 °F 64% 30.29 in 10.0 mi NW 11.5 mph 21.9 mph 0.00 in   Scattered Clouds
7:54 PM 32.0 °F 20.1 °F 14.0 °F 48% 30.32 in 10.0 mi WNW 19.6 mph 28.8 mph N/A   Partly Cloudy
8:54 PM 30.0 °F 18.3 °F 12.0 °F 47% 30.35 in 10.0 mi WNW 17.3 mph 29.9 mph N/A   Partly Cloudy
9:54 PM 30.0 °F 20.0 °F 12.0 °F 47% 30.37 in 10.0 mi NW 12.7 mph 23.0 mph N/A   Clear
10:54 PM 28.9 °F 18.6 °F 12.0 °F 49% 30.39 in 10.0 mi NW 12.7 mph - N/A   Clear
11:54 PM 28.0 °F 17.5 °F 10.9 °F 49% 30.42 in 10.0 mi NW 12.7 mph 20.7 mph N/A   Partly Cloudy